Simultaneous Nadir Overpasses (SNOs) Predictions

Prediction of SNOs between GOES-15 and METOP-B Satellite Orbit:

Table of predicted SNOs for the next 14.0 days since TLE Epoch: 5/25/2017
Index Date Time (GOES-15) GOES-15 Lat,Lon METOP-B Lat,Lon Distance(km) Time Diff (sec)
1 05/25/2017 18:13:00 -0.13,-134.74 -0.97,-130.95 432.12 80
2 05/27/2017 06:32:00 0.13,-134.62 -0.06,-135.55 104.88 80
3 05/28/2017 06:13:59 0.14,-134.58 1.02,-130.54 459.07 80
4 05/29/2017 18:32:51 -0.14,-134.56 0.00,-135.10 63.16 80
5 06/01/2017 06:28:29 0.14,-134.37 0.04,-134.70 37.71 80
6 06/03/2017 18:26:41 -0.14,-134.30 -0.16,-134.27 3.89 80
7 06/06/2017 06:27:40 0.14,-134.11 0.21,-133.86 28.42 80
8 06/07/2017 18:46:31 -0.13,-134.08 0.81,-138.42 494.10 80




NCC Satellite Simultaneous Nadir Overpasses (SNOs) Prediction Service
